TGL25PT LFBZ-LICC

Flight info

Callsign TGL25PT
Flight time 2h 3m
Altitude 39000
Route SOVOS G17 ORTEZ DCT TBO DCT PERDU N862 POSSY/N0464F400 M601 BCN N725 ORKUM M603 ELSAG DCT ALG/N0471F410 DCT QUENN DCT RONAB DCT BEKIV M871 LIBRO
Aircraft B772/H-SDE2E3FGHIJ5LORVWXY/LB1D1

Departure

Time 2026-04-25 14:32
Airport Biarritz Pays Basque airport (LFBZ)

Arrival

Time 2026-04-25 16:35
Airport Catania-Fontanarossa Airport (LICC)
Time Latitude Longitude Altitude Speed Heading
2026-04-25 13:55 43.47120 -1.52949 246 ft 0 kts 359°
2026-04-25 13:56 43.47121 -1.52949 246 ft 0 kts 359°
2026-04-25 14:03 43.47120 -1.52949 246 ft 0 kts 359°
2026-04-25 14:20 43.47109 -1.52948 246 ft 2 kts 360°
2026-04-25 14:21 43.47094 -1.52951 246 ft 2 kts 18°
2026-04-25 14:21 43.47080 -1.52959 246 ft 2 kts 33°
2026-04-25 14:21 43.47068 -1.52972 246 ft 2 kts 48°
2026-04-25 14:21 43.47060 -1.52989 247 ft 2 kts 63°
2026-04-25 14:22 43.47055 -1.53008 247 ft 2 kts 78°
2026-04-25 14:22 43.47053 -1.53021 247 ft 0 kts 88°
2026-04-25 14:22 43.47053 -1.53024 247 ft 0 kts 89°
2026-04-25 14:27 43.47053 -1.53015 247 ft 3 kts 89°
2026-04-25 14:27 43.47053 -1.52963 247 ft 7 kts 93°
2026-04-25 14:27 43.47024 -1.52888 246 ft 10 kts 139°
2026-04-25 14:27 43.46993 -1.52788 246 ft 13 kts 88°
2026-04-25 14:28 43.46994 -1.52653 245 ft 15 kts 90°
2026-04-25 14:28 43.46996 -1.52487 243 ft 18 kts 88°
2026-04-25 14:28 43.46998 -1.52309 241 ft 14 kts 89°
2026-04-25 14:28 43.46976 -1.52199 239 ft 14 kts 137°
2026-04-25 14:29 43.46867 -1.52149 239 ft 17 kts 142°
2026-04-25 14:29 43.46841 -1.51967 237 ft 22 kts 89°
2026-04-25 14:29 43.46845 -1.51733 235 ft 26 kts 89°
2026-04-25 14:29 43.46850 -1.51465 234 ft 29 kts 87°
2026-04-25 14:30 43.46852 -1.51181 234 ft 28 kts 89°
2026-04-25 14:30 43.46877 -1.50978 233 ft 4 kts 115°
2026-04-25 14:30 43.46854 -1.50975 233 ft 3 kts 230°
2026-04-25 14:31 43.46851 -1.51005 234 ft 0 kts 267°
2026-04-25 14:31 43.46849 -1.51173 234 ft 57 kts 269°
2026-04-25 14:31 43.46841 -1.52137 239 ft 141 kts 269°
2026-04-25 14:32 43.46829 -1.53740 549 ft 181 kts 271°
2026-04-25 14:32 43.46836 -1.55449 1422 ft 189 kts 271°
2026-04-25 14:32 43.46823 -1.57261 2411 ft 199 kts 270°
2026-04-25 14:32 43.46773 -1.59184 3364 ft 214 kts 269°
2026-04-25 14:33 43.46720 -1.61225 4564 ft 212 kts 270°
2026-04-25 14:33 43.46509 -1.63241 5038 ft 229 kts 246°
2026-04-25 14:33 43.45349 -1.64817 5458 ft 245 kts 200°
2026-04-25 14:33 43.43702 -1.64956 6247 ft 244 kts 169°
2026-04-25 14:34 43.42051 -1.64165 6715 ft 258 kts 150°
2026-04-25 14:34 43.40693 -1.62511 7057 ft 274 kts 121°
2026-04-25 14:34 43.40115 -1.60000 7515 ft 283 kts 94°
2026-04-25 14:34 43.39985 -1.57310 8293 ft 284 kts 92°
2026-04-25 14:35 43.39884 -1.54574 8982 ft 288 kts 92°
2026-04-25 14:35 43.39782 -1.51788 9640 ft 294 kts 92°
2026-04-25 14:35 43.39679 -1.48983 10333 ft 297 kts 92°
2026-04-25 14:35 43.39572 -1.46104 10738 ft 312 kts 92°
2026-04-25 14:36 43.39457 -1.43029 11093 ft 329 kts 92°
2026-04-25 14:36 43.39337 -1.39839 11467 ft 345 kts 92°
2026-04-25 14:36 43.39209 -1.36455 11805 ft 361 kts 92°
2026-04-25 14:36 43.39074 -1.32925 12158 ft 376 kts 93°
2026-04-25 14:37 43.38934 -1.29311 12561 ft 388 kts 93°
2026-04-25 14:37 43.38789 -1.25576 13229 ft 394 kts 93°
2026-04-25 14:37 43.38641 -1.21799 13952 ft 398 kts 93°
2026-04-25 14:37 43.38490 -1.17979 14752 ft 401 kts 93°
2026-04-25 14:38 43.38337 -1.14156 15528 ft 405 kts 93°
2026-04-25 14:38 43.38180 -1.10247 16296 ft 409 kts 93°
2026-04-25 14:38 43.38021 -1.06335 17062 ft 413 kts 93°
2026-04-25 14:38 43.37861 -1.02422 17787 ft 417 kts 94°
2026-04-25 14:39 43.37696 -0.98418 18471 ft 422 kts 94°
2026-04-25 14:39 43.37527 -0.94359 19179 ft 427 kts 94°
2026-04-25 14:39 43.37355 -0.90274 19869 ft 431 kts 93°
2026-04-25 14:39 43.37180 -0.86147 20571 ft 435 kts 94°
2026-04-25 14:40 43.37004 -0.82006 21213 ft 439 kts 94°
2026-04-25 14:40 43.36823 -0.77805 21805 ft 445 kts 93°
2026-04-25 14:40 43.36636 -0.73514 22447 ft 449 kts 93°
2026-04-25 14:40 43.36456 -0.69186 23078 ft 453 kts 93°
2026-04-25 14:41 43.36304 -0.64881 23670 ft 458 kts 92°
2026-04-25 14:41 43.36150 -0.60464 24293 ft 462 kts 93°
2026-04-25 14:41 43.35762 -0.56099 24915 ft 464 kts 102°
2026-04-25 14:41 43.34851 -0.51834 25497 ft 467 kts 111°
2026-04-25 14:42 43.33431 -0.47813 26036 ft 469 kts 121°
2026-04-25 14:42 43.32843 -0.46538 26227 ft 470 kts 124°
2026-04-25 14:42 43.29216 -0.41003 27153 ft 473 kts 141°
2026-04-25 14:42 43.26613 -0.38257 27709 ft 475 kts 144°
2026-04-25 14:43 43.23951 -0.35563 28260 ft 478 kts 144°
2026-04-25 14:43 43.21259 -0.32849 28793 ft 481 kts 145°
2026-04-25 14:43 43.18566 -0.30137 29300 ft 484 kts 145°
2026-04-25 14:43 43.15847 -0.27401 29918 ft 485 kts 145°
2026-04-25 14:44 43.13104 -0.24645 30705 ft 481 kts 145°
2026-04-25 14:44 43.10413 -0.21943 31544 ft 477 kts 145°
2026-04-25 14:44 43.07756 -0.19278 32298 ft 473 kts 145°
2026-04-25 14:44 43.05109 -0.16627 32991 ft 470 kts 145°
2026-04-25 14:45 43.02449 -0.13965 33649 ft 468 kts 146°
2026-04-25 14:45 42.99804 -0.11321 34269 ft 466 kts 146°
2026-04-25 14:45 42.97182 -0.08704 34865 ft 464 kts 145°
2026-04-25 14:45 42.94550 -0.06079 35382 ft 463 kts 145°
2026-04-25 14:46 42.91972 -0.03511 35810 ft 463 kts 145°
2026-04-25 14:46 42.89365 -0.00916 36198 ft 463 kts 145°
2026-04-25 14:46 42.86753 0.01679 36591 ft 463 kts 145°
2026-04-25 14:46 42.84141 0.04272 37038 ft 463 kts 145°
2026-04-25 14:47 42.81542 0.06850 37526 ft 462 kts 145°
2026-04-25 14:47 42.80686 0.07699 37676 ft 462 kts 145°
2026-04-25 14:47 42.76630 0.12448 38589 ft 462 kts 136°
2026-04-25 14:47 42.74394 0.15579 38743 ft 461 kts 135°
2026-04-25 14:48 42.72178 0.18692 39194 ft 461 kts 135°
2026-04-25 14:48 42.69942 0.21830 39220 ft 464 kts 135°
2026-04-25 14:48 42.65760 0.28544 39218 ft 464 kts 123°
2026-04-25 14:49 42.62678 0.36294 39194 ft 467 kts 118°
2026-04-25 14:49 42.59698 0.44090 39175 ft 467 kts 118°
2026-04-25 14:50 42.56695 0.51928 39155 ft 467 kts 118°
2026-04-25 14:50 42.53708 0.59700 39163 ft 466 kts 118°
2026-04-25 14:51 42.50698 0.67512 39171 ft 467 kts 119°
2026-04-25 14:51 42.47707 0.75255 39192 ft 468 kts 119°
2026-04-25 14:52 42.44670 0.83092 39172 ft 467 kts 119°
2026-04-25 14:52 42.42157 0.89563 39162 ft 468 kts 119°
2026-04-25 14:53 42.38604 0.98688 39157 ft 469 kts 119°
2026-04-25 14:53 42.35553 1.06500 39166 ft 468 kts 118°
2026-04-25 14:54 42.32506 1.14279 39165 ft 467 kts 119°
2026-04-25 14:54 42.29459 1.22039 39167 ft 469 kts 119°
2026-04-25 14:55 42.26404 1.29798 39168 ft 467 kts 119°
2026-04-25 14:55 42.23349 1.37535 39166 ft 469 kts 119°
2026-04-25 14:56 42.20266 1.45323 39168 ft 468 kts 119°
2026-04-25 14:56 42.17178 1.53104 39152 ft 468 kts 119°
2026-04-25 14:57 42.14108 1.60817 39137 ft 467 kts 119°
2026-04-25 14:57 42.11033 1.68524 39119 ft 467 kts 120°
2026-04-25 14:58 42.07937 1.76263 39119 ft 467 kts 120°
2026-04-25 14:58 42.04853 1.83950 39112 ft 467 kts 119°
2026-04-25 14:59 42.01760 1.91641 39103 ft 467 kts 120°
2026-04-25 14:59 41.98667 1.99310 39109 ft 467 kts 120°
2026-04-25 15:00 41.95552 2.07015 39101 ft 468 kts 120°
2026-04-25 15:00 41.92459 2.14643 39095 ft 467 kts 120°
2026-04-25 15:01 41.89328 2.22348 39094 ft 466 kts 119°
2026-04-25 15:01 41.86228 2.29956 39092 ft 465 kts 119°
2026-04-25 15:02 41.83110 2.37586 39092 ft 466 kts 119°
2026-04-25 15:02 41.80003 2.45173 39094 ft 466 kts 120°
2026-04-25 15:03 41.76871 2.52799 39098 ft 465 kts 119°
2026-04-25 15:03 41.73750 2.60380 39091 ft 466 kts 119°
2026-04-25 15:04 41.70612 2.67980 39090 ft 465 kts 120°
2026-04-25 15:04 41.67475 2.75561 39080 ft 465 kts 120°
2026-04-25 15:05 41.64357 2.83076 39076 ft 465 kts 120°
2026-04-25 15:06 41.59645 2.94394 39078 ft 465 kts 120°
2026-04-25 15:06 41.56495 3.01940 39072 ft 465 kts 120°
2026-04-25 15:07 41.53352 3.09449 39084 ft 465 kts 120°
2026-04-25 15:07 41.50192 3.16977 39079 ft 466 kts 120°
2026-04-25 15:08 41.47020 3.24515 39077 ft 466 kts 120°
2026-04-25 15:08 41.43863 3.32000 39076 ft 466 kts 120°
2026-04-25 15:09 41.40660 3.39574 39080 ft 466 kts 120°
2026-04-25 15:09 41.35886 3.50827 39084 ft 467 kts 120°
2026-04-25 15:10 41.32699 3.58317 39082 ft 467 kts 119°
2026-04-25 15:11 41.27902 3.69555 39086 ft 466 kts 120°
2026-04-25 15:11 41.24702 3.77028 39086 ft 466 kts 120°
2026-04-25 15:12 41.19881 3.88251 39088 ft 467 kts 120°
2026-04-25 15:12 41.17750 3.93200 39086 ft 468 kts 120°
2026-04-25 15:13 41.11824 4.06915 39095 ft 468 kts 120°
2026-04-25 15:14 41.08589 4.14378 39090 ft 467 kts 120°
2026-04-25 15:14 41.05335 4.21865 39089 ft 468 kts 120°
2026-04-25 15:15 41.02096 4.29299 39089 ft 467 kts 120°
2026-04-25 15:15 40.98829 4.36779 39094 ft 467 kts 120°
2026-04-25 15:16 40.95586 4.44185 39095 ft 468 kts 120°
2026-04-25 15:16 40.90690 4.55333 39097 ft 468 kts 120°
2026-04-25 15:17 40.86071 4.66662 39096 ft 467 kts 110°
2026-04-25 15:18 40.84725 4.75023 39099 ft 467 kts 96°
2026-04-25 15:18 40.83664 4.87770 39096 ft 469 kts 97°
2026-04-25 15:19 40.83160 4.93464 39094 ft 469 kts 97°
2026-04-25 15:19 40.82113 5.04901 39093 ft 469 kts 97°
2026-04-25 15:20 40.81309 5.13452 39093 ft 469 kts 97°
2026-04-25 15:20 40.80495 5.22006 39100 ft 469 kts 97°
2026-04-25 15:21 40.79673 5.30531 39093 ft 468 kts 97°
2026-04-25 15:21 40.78843 5.39067 39099 ft 468 kts 97°
2026-04-25 15:22 40.78006 5.47601 39337 ft 471 kts 97°
2026-04-25 15:22 40.77584 5.51876 39734 ft 469 kts 97°
2026-04-25 15:22 40.77166 5.56091 40080 ft 466 kts 97°
2026-04-25 15:23 40.76741 5.60368 40282 ft 467 kts 97°
2026-04-25 15:23 40.76311 5.64664 40391 ft 468 kts 97°
2026-04-25 15:23 40.75887 5.68898 40525 ft 469 kts 98°
2026-04-25 15:23 40.75457 5.73162 40700 ft 468 kts 98°
2026-04-25 15:24 40.75027 5.77422 40851 ft 468 kts 98°
2026-04-25 15:24 40.74596 5.81668 40947 ft 469 kts 98°
2026-04-25 15:24 40.74163 5.85920 41052 ft 470 kts 98°
2026-04-25 15:24 40.74017 5.87348 41088 ft 470 kts 98°
2026-04-25 15:25 40.72853 5.98696 41096 ft 470 kts 98°
2026-04-25 15:25 40.71975 6.07171 41094 ft 468 kts 98°
2026-04-25 15:26 40.71082 6.15730 41094 ft 469 kts 98°
2026-04-25 15:26 40.70189 6.24214 41095 ft 469 kts 98°
2026-04-25 15:27 40.69286 6.32738 41096 ft 470 kts 98°
2026-04-25 15:28 40.67918 6.45521 41098 ft 471 kts 98°
2026-04-25 15:28 40.66996 6.54062 41088 ft 471 kts 98°
2026-04-25 15:29 40.66069 6.62579 41095 ft 471 kts 98°
2026-04-25 15:29 40.65134 6.71120 41089 ft 470 kts 98°
2026-04-25 15:30 40.64346 6.78271 41097 ft 471 kts 98°
2026-04-25 15:30 40.63247 6.88182 41095 ft 470 kts 98°
2026-04-25 15:31 40.62294 6.96699 41092 ft 471 kts 98°
2026-04-25 15:31 40.61333 7.05243 41093 ft 471 kts 98°
2026-04-25 15:32 40.60365 7.13784 41089 ft 472 kts 98°
2026-04-25 15:32 40.59389 7.22337 41097 ft 471 kts 98°
2026-04-25 15:33 40.57915 7.35146 41094 ft 472 kts 98°
2026-04-25 15:33 40.56929 7.43649 41092 ft 470 kts 98°
2026-04-25 15:34 40.56699 7.52168 41095 ft 471 kts 83°
2026-04-25 15:34 40.57188 7.57865 41092 ft 470 kts 82°
2026-04-25 15:35 40.58559 7.73482 41088 ft 470 kts 83°
2026-04-25 15:36 40.59656 7.86318 41093 ft 469 kts 83°
2026-04-25 15:36 40.60368 7.94784 41093 ft 468 kts 83°
2026-04-25 15:37 40.61085 8.03373 41083 ft 467 kts 83°
2026-04-25 15:37 40.61791 8.11904 41103 ft 468 kts 83°
2026-04-25 15:38 40.62470 8.20399 41096 ft 467 kts 85°
2026-04-25 15:38 40.61917 8.28950 41096 ft 470 kts 102°
2026-04-25 15:39 40.60347 8.37320 41091 ft 470 kts 103°
2026-04-25 15:39 40.58745 8.45672 41101 ft 470 kts 103°
2026-04-25 15:40 40.57673 8.51242 41095 ft 470 kts 103°
2026-04-25 15:40 40.55509 8.62438 41095 ft 471 kts 103°
2026-04-25 15:41 40.53896 8.70742 41092 ft 470 kts 103°
2026-04-25 15:41 40.52269 8.79079 41098 ft 470 kts 103°
2026-04-25 15:42 40.50637 8.87415 41074 ft 470 kts 103°
2026-04-25 15:42 40.49003 8.95721 41095 ft 470 kts 103°
2026-04-25 15:43 40.47356 9.04059 41097 ft 470 kts 103°
2026-04-25 15:43 40.45703 9.12398 41091 ft 470 kts 103°
2026-04-25 15:44 40.44053 9.20680 41095 ft 470 kts 103°
2026-04-25 15:44 40.42380 9.29050 41113 ft 470 kts 103°
2026-04-25 15:45 40.40707 9.37380 41093 ft 469 kts 103°
2026-04-25 15:45 40.39587 9.42945 41105 ft 470 kts 103°
2026-04-25 15:46 40.37351 9.53999 41111 ft 470 kts 103°
2026-04-25 15:46 40.35657 9.62334 41097 ft 469 kts 103°
2026-04-25 15:47 40.33979 9.70558 41092 ft 470 kts 104°
2026-04-25 15:47 40.32290 9.78806 41095 ft 470 kts 104°
2026-04-25 15:48 40.30588 9.87080 41100 ft 470 kts 104°
2026-04-25 15:48 40.28879 9.95355 41095 ft 470 kts 104°
2026-04-25 15:49 40.27168 10.03609 41096 ft 469 kts 104°
2026-04-25 15:49 40.25451 10.11864 41097 ft 469 kts 104°
2026-04-25 15:50 40.23723 10.20135 41096 ft 469 kts 104°
2026-04-25 15:50 40.21984 10.28423 41097 ft 469 kts 104°
2026-04-25 15:51 40.20825 10.33931 41097 ft 470 kts 104°
2026-04-25 15:51 40.18495 10.44962 41096 ft 470 kts 104°
2026-04-25 15:52 40.16742 10.53225 41095 ft 470 kts 104°
2026-04-25 15:52 40.14996 10.61426 41096 ft 469 kts 104°
2026-04-25 15:53 40.13227 10.69716 41096 ft 471 kts 104°
2026-04-25 15:53 40.11467 10.77926 41097 ft 470 kts 104°
2026-04-25 15:54 40.09707 10.86108 41097 ft 470 kts 104°
2026-04-25 15:54 40.07937 10.94304 41095 ft 470 kts 105°
2026-04-25 15:55 40.06165 11.02476 41095 ft 471 kts 105°
2026-04-25 15:55 40.04367 11.10736 41093 ft 471 kts 105°
2026-04-25 15:56 40.02575 11.18940 41098 ft 470 kts 105°
2026-04-25 15:56 40.00768 11.27183 41105 ft 469 kts 105°
2026-04-25 15:57 39.98974 11.35334 41100 ft 470 kts 105°
2026-04-25 15:57 39.97158 11.43555 41099 ft 469 kts 105°
2026-04-25 15:58 39.95335 11.51778 41091 ft 470 kts 105°
2026-04-25 15:58 39.93514 11.59963 41099 ft 472 kts 105°
2026-04-25 15:59 39.91678 11.68183 41106 ft 470 kts 105°
2026-04-25 15:59 39.89859 11.76294 41097 ft 469 kts 105°
2026-04-25 16:00 39.88536 11.81817 41086 ft 469 kts 111°
2026-04-25 16:00 39.85940 11.88041 41092 ft 472 kts 126°
2026-04-25 16:00 39.83823 11.91300 41094 ft 472 kts 135°
2026-04-25 16:01 39.78653 11.96673 41094 ft 474 kts 144°
2026-04-25 16:01 39.73283 12.01670 41091 ft 473 kts 144°
2026-04-25 16:02 39.67951 12.06593 41093 ft 473 kts 144°
2026-04-25 16:02 39.62561 12.11547 41098 ft 473 kts 144°
2026-04-25 16:03 39.57162 12.16494 41093 ft 474 kts 144°
2026-04-25 16:03 39.51745 12.21443 41099 ft 475 kts 144°
2026-04-25 16:04 39.46333 12.26377 41077 ft 473 kts 144°
2026-04-25 16:04 39.40924 12.31297 41092 ft 475 kts 144°
2026-04-25 16:05 39.35459 12.36258 41086 ft 475 kts 144°
2026-04-25 16:06 39.27341 12.43608 41096 ft 476 kts 144°
2026-04-25 16:06 39.21896 12.48528 41094 ft 475 kts 144°
2026-04-25 16:07 39.16475 12.53415 41094 ft 477 kts 144°
2026-04-25 16:07 39.11071 12.58278 41095 ft 476 kts 144°
2026-04-25 16:08 39.05655 12.63142 41093 ft 475 kts 144°
2026-04-25 16:08 39.00202 12.68030 41093 ft 476 kts 145°
2026-04-25 16:09 38.94796 12.72867 41089 ft 476 kts 145°
2026-04-25 16:09 38.89319 12.77758 41093 ft 478 kts 145°
2026-04-25 16:10 38.83862 12.82621 41092 ft 477 kts 145°
2026-04-25 16:10 38.78438 12.87447 41094 ft 478 kts 145°
2026-04-25 16:11 38.72969 12.92303 41094 ft 477 kts 145°
2026-04-25 16:11 38.67553 12.97102 41092 ft 478 kts 145°
2026-04-25 16:12 38.62051 13.01969 41091 ft 479 kts 145°
2026-04-25 16:12 38.56564 13.06814 41092 ft 479 kts 145°
2026-04-25 16:13 38.51040 13.11682 41092 ft 479 kts 145°
2026-04-25 16:13 38.45535 13.16524 41046 ft 476 kts 145°
2026-04-25 16:13 38.42824 13.18905 40405 ft 475 kts 145°
2026-04-25 16:14 38.40090 13.21304 39195 ft 484 kts 145°
2026-04-25 16:14 38.37331 13.23724 38117 ft 486 kts 145°
2026-04-25 16:14 38.34571 13.26140 37223 ft 486 kts 145°
2026-04-25 16:14 38.31777 13.28585 36361 ft 484 kts 145°
2026-04-25 16:15 38.29019 13.30996 35663 ft 485 kts 145°
2026-04-25 16:15 38.26221 13.33439 34824 ft 488 kts 145°
2026-04-25 16:15 38.23415 13.35888 33815 ft 492 kts 145°
2026-04-25 16:15 38.20563 13.38374 32767 ft 495 kts 145°
2026-04-25 16:16 38.17726 13.40844 31780 ft 496 kts 144°
2026-04-25 16:16 38.14910 13.43294 30827 ft 496 kts 144°
2026-04-25 16:16 38.12043 13.45785 30197 ft 489 kts 144°
2026-04-25 16:16 38.09274 13.48190 29694 ft 481 kts 144°
2026-04-25 16:17 38.06517 13.50581 29131 ft 474 kts 144°
2026-04-25 16:17 38.03777 13.52956 28543 ft 468 kts 144°
2026-04-25 16:17 38.01108 13.55267 27969 ft 462 kts 144°
2026-04-25 16:17 37.98505 13.57520 27394 ft 456 kts 144°
2026-04-25 16:18 37.95863 13.59803 26816 ft 451 kts 144°
2026-04-25 16:18 37.95029 13.60524 26633 ft 449 kts 144°
2026-04-25 16:18 37.91077 13.64696 25581 ft 440 kts 131°
2026-04-25 16:18 37.89153 13.67676 25019 ft 434 kts 127°
2026-04-25 16:19 37.87302 13.70711 24339 ft 431 kts 127°
2026-04-25 16:19 37.85502 13.73669 23534 ft 427 kts 127°
2026-04-25 16:19 37.83691 13.76642 22745 ft 424 kts 127°
2026-04-25 16:20 37.80133 13.82476 21258 ft 416 kts 127°
2026-04-25 16:20 37.78388 13.85333 20550 ft 412 kts 126°
2026-04-25 16:20 37.74907 13.91025 19136 ft 404 kts 126°
2026-04-25 16:21 37.73209 13.93798 18539 ft 402 kts 126°
2026-04-25 16:21 37.71510 13.96571 17958 ft 399 kts 126°
2026-04-25 16:21 37.69813 13.99338 17377 ft 396 kts 126°
2026-04-25 16:21 37.68131 14.02079 16789 ft 394 kts 126°
2026-04-25 16:22 37.66460 14.04798 16222 ft 391 kts 126°
2026-04-25 16:22 37.64807 14.07486 15651 ft 388 kts 126°
2026-04-25 16:22 37.63164 14.10156 15091 ft 385 kts 126°
2026-04-25 16:22 37.61520 14.12827 14539 ft 382 kts 126°
2026-04-25 16:23 37.59906 14.15446 14014 ft 378 kts 126°
2026-04-25 16:23 37.58320 14.18016 13609 ft 362 kts 126°
2026-04-25 16:23 37.56812 14.20456 13204 ft 345 kts 126°
2026-04-25 16:23 37.55373 14.22784 12864 ft 327 kts 126°
2026-04-25 16:24 37.54014 14.24979 12604 ft 310 kts 126°
2026-04-25 16:24 37.52703 14.27096 12450 ft 295 kts 126°
2026-04-25 16:24 37.51460 14.29105 12159 ft 289 kts 125°
2026-04-25 16:24 37.50232 14.31088 11592 ft 289 kts 125°
2026-04-25 16:25 37.49002 14.33076 11067 ft 287 kts 125°
2026-04-25 16:25 37.48589 14.33744 10900 ft 287 kts 125°
2026-04-25 16:25 37.46557 14.37022 10038 ft 283 kts 125°
2026-04-25 16:25 37.45355 14.38960 9538 ft 281 kts 125°
2026-04-25 16:26 37.44166 14.40876 9060 ft 278 kts 126°
2026-04-25 16:26 37.42973 14.42799 8565 ft 275 kts 126°
2026-04-25 16:26 37.41941 14.44787 8057 ft 271 kts 108°
2026-04-25 16:26 37.41635 14.47076 7570 ft 269 kts 88°
2026-04-25 16:27 37.41724 14.49424 7155 ft 271 kts 84°
2026-04-25 16:27 37.41878 14.51787 6828 ft 271 kts 83°
2026-04-25 16:27 37.42047 14.54151 6522 ft 270 kts 83°
2026-04-25 16:27 37.42224 14.56495 6229 ft 269 kts 83°
2026-04-25 16:28 37.42411 14.58852 5925 ft 267 kts 83°
2026-04-25 16:28 37.42600 14.61138 5635 ft 266 kts 82°
2026-04-25 16:28 37.42798 14.63473 5335 ft 264 kts 82°
2026-04-25 16:28 37.42998 14.65759 5062 ft 263 kts 83°
2026-04-25 16:29 37.43200 14.68036 4829 ft 260 kts 83°
2026-04-25 16:29 37.43404 14.70257 4674 ft 253 kts 82°
2026-04-25 16:29 37.43616 14.72447 4525 ft 247 kts 82°
2026-04-25 16:29 37.43823 14.74556 4342 ft 240 kts 82°
2026-04-25 16:30 37.44025 14.76594 4209 ft 230 kts 82°
2026-04-25 16:30 37.44220 14.78569 4065 ft 227 kts 82°
2026-04-25 16:30 37.44405 14.80530 3850 ft 225 kts 82°
2026-04-25 16:30 37.44583 14.82507 3562 ft 228 kts 83°
2026-04-25 16:31 37.44757 14.84493 3282 ft 227 kts 83°
2026-04-25 16:31 37.44926 14.86426 2997 ft 215 kts 83°
2026-04-25 16:31 37.45090 14.88224 2739 ft 197 kts 82°
2026-04-25 16:31 37.45240 14.89884 2498 ft 185 kts 82°
2026-04-25 16:32 37.45376 14.91435 2274 ft 174 kts 83°
2026-04-25 16:32 37.45505 14.92915 2052 ft 164 kts 83°
2026-04-25 16:32 37.45624 14.94295 1837 ft 157 kts 82°
2026-04-25 16:32 37.45737 14.95616 1638 ft 144 kts 82°
2026-04-25 16:33 37.45844 14.96843 1445 ft 137 kts 83°
2026-04-25 16:33 37.45943 14.98011 1260 ft 134 kts 83°
2026-04-25 16:33 37.46043 14.99179 1077 ft 132 kts 83°
2026-04-25 16:33 37.46139 15.00314 886 ft 131 kts 83°
2026-04-25 16:34 37.46237 15.01461 703 ft 130 kts 83°
2026-04-25 16:34 37.46333 15.02579 525 ft 129 kts 83°
2026-04-25 16:34 37.46426 15.03695 355 ft 127 kts 83°
2026-04-25 16:34 37.46526 15.04800 184 ft 126 kts 83°
2026-04-25 16:35 37.46617 15.05876 54 ft 116 kts 84°
2026-04-25 16:35 37.46681 15.06652 36 ft 62 kts 84°
2026-04-25 16:35 37.46717 15.07077 39 ft 43 kts 84°
2026-04-25 16:35 37.46741 15.07378 40 ft 32 kts 84°
2026-04-25 16:36 37.46787 15.07642 41 ft 28 kts 63°
2026-04-25 16:36 37.46811 15.07691 41 ft 17 kts 57°
2026-04-25 16:36 37.46933 15.07772 43 ft 13 kts 277°
2026-04-25 16:36 37.46926 15.07645 44 ft 14 kts 257°
2026-04-25 16:37 37.46917 15.07520 44 ft 15 kts 265°
2026-04-25 16:37 37.46904 15.07366 43 ft 19 kts 264°
2026-04-25 16:37 37.46890 15.07181 39 ft 23 kts 263°
2026-04-25 16:37 37.46875 15.06981 34 ft 14 kts 265°
2026-04-25 16:38 37.46863 15.06866 35 ft 13 kts 260°
2026-04-25 16:38 37.46852 15.06752 37 ft 8 kts 262°
2026-04-25 16:38 37.46875 15.06692 37 ft 7 kts 338°
2026-04-25 16:38 37.46897 15.06687 38 ft 0 kts 354°
2026-04-25 16:39 37.46911 15.06685 39 ft 1 kts 354°
2026-04-25 16:39 37.46912 15.06685 39 ft 0 kts 354°